Location: �bnet
(46.9957°N, 8.4908°E)
Time: 15:35:30
(UTC+00:00)

Cosmos 1666 Rocket - Pass Details

Date: 11 May 2021
Orbit: 602 x 634 km, 82.5° (Epoch: 17 June)

Event Time Altitude Azimuth Distance (km) Brightness Sun altitude
Rises 19:23:46 0° 356° (N) 2,910 7.6 -5.8°
Reaches altitude 10° 19:26:08 10° 4° (N) 1,994 6.6 -6.1°
Maximum altitude 19:30:18 41° 75° (ENE) 901 4.1 -6.7°
Drops below altitude 10° 19:34:25 10° 146° (SE) 1,961 5.5 -7.2°
Enters shadow 19:35:00 - 149° (SSE) 2,183 5.8 -7.3°
